Location: Hopewell Observatory
(38.8698°N, 77.6988°W)
Time: 15:25:50
(UTC-05:00)

Daily predictions for brighter satellites

Satellite Brightness Start Highest point End
(mag) Time Altitude Azimuth Time Altitude Azimuth Time Altitude Azimuth
Cosmos 1340 Rocket 3.7 17:40:59 10° SSE 17:44:24 29° E 17:47:49 10° NNE
Cosmos 1484 Rocket 3.3 17:42:27 10° SE 17:46:06 38° ENE 17:49:50 10° N
Cosmos 2297 4.4 17:43:35 10° N 17:48:41 32° ENE 17:53:46 10° ESE
SKYMED 2 4.1 17:46:08 10° NNE 17:50:12 38° E 17:54:14 10° SSE
Cosmos 1844 Rocket 3.9 17:46:32 10° NW 17:51:57 48° WSW 17:57:19 10° S
Meteor 2-10 4.3 17:47:03 10° N 17:51:57 44° ENE 17:56:58 10° SSE
Thor Agena Rocket 3.6 17:48:26 10° NNE 17:53:42 90° E 17:58:51 10° SSW
Cosmos 1500 Rocket 3.8 17:49:58 10° SSW 17:54:17 73° W 17:58:39 10° N
SPOT 3 Rocket 3.7 17:50:11 10° SSE 17:55:20 84° WSW 18:00:32 10° NNW
Milstar 3 4.4 17:49:55 10° WSW 17:56:03 30° SSW 18:01:49 10° SE
Cosmos 2058 3.0 17:53:21 10° S 17:57:20 53° E 18:01:21 10° NNE
Cosmos 1461 3.2 17:56:10 10° S 18:00:14 48° ESE 18:04:11 10° NE
NOSS 0 Rocket 4.3 17:54:43 10° SSW 18:00:55 68° WNW 18:07:08 10° NNE
Meteor 1-28 Rocket 4.0 17:57:39 10° NNE 18:01:01 31° E 18:04:21 10° SSE
Haruka 4.2 17:57:59 10° SW 18:01:28 37° SSE 18:09:48 10° E
Cosmos 371 Rocket 4.4 17:57:43 10° SW 18:02:19 45° WNW 18:06:57 10° N
Sich 1 4.2 17:59:16 10° SE 18:02:48 24° E 18:06:20 10° NE
SMAP 3.8 17:58:44 10° S 18:03:19 58° W 18:07:55 10° NNW
MONITOR-E 4.1 18:06:16 10° SSE 18:09:26 85° ENE 18:12:36 10° N
Cosmos 1633 Rocket 4.1 18:08:00 10° SE 18:11:38 25° E 18:15:15 10° NNE
Abrixas 3.8 18:14:43 10° W 18:17:22 29° NNW 18:19:25 14° NE
Cosmos 1356 Rocket 3.8 18:14:31 10° SSE 18:18:14 38° E 18:21:56 10° NNE
IDEFIX/ARIANE 42P 4.3 18:15:23 10° SSW 18:20:10 37° W 18:25:00 10° NNW
Meteor 1-11 4.3 18:15:36 10° S 18:21:17 84° W 18:27:04 10° N
NOAA 12 4.3 18:18:55 10° SE 18:23:55 47° ENE 18:28:57 10° N
Lacrosse 5 rocket 1.4 18:21:57 10° NW 18:25:45 71° SW 18:29:45 10° SE
FREGAT/IRIS 3.6 18:24:09 10° SE 18:26:45 26° ENE 18:29:22 10° NNE
H-2A ROCKET BODY 4.3 17:51:51 10° WSW 18:26:47 49° S 18:33:03 11° ESE
Aureole 2 Rocket 3.7 18:23:12 10° SW 18:26:48 48° WNW 18:30:45 10° N
Coronas F rocket 3.4 18:28:50 10° SSE 18:29:10 12° SE 18:29:10 12° SE
BREEZE-M DEB (TANK) 2.4 18:29:29 10° WSW 18:31:51 51° NNW 18:33:03 25° NE
Cosmos 1626 2.1 18:29:53 10° S 18:33:35 63° E 18:37:17 10° NNE
Cosmos 2219 Rocket 4.2 18:30:43 10° WSW 18:35:17 25° NW 18:39:52 10° N
OTV 4 3.4 18:35:28 10° WSW 18:36:51 13° SSW 18:38:14 10° S
Timation 1 Rocket 4.3 18:31:08 10° NNW 18:37:12 88° ENE 18:43:12 10° SSE
Cosmos 1707 Rocket 3.4 18:33:14 10° N 18:37:33 66° E 18:41:52 10° SSE
Cosmos 773 Rocket 4.2 18:33:02 10° S 18:37:58 48° ESE 18:42:09 14° NNE
Cosmos 2333 Rocket 3.9 18:33:04 10° WSW 18:37:58 30° WNW 18:42:55 10° N
COSMO-SKYMED 1 3.2 18:33:59 10° N 18:38:15 58° WNW 18:42:30 10° SSW
Cosmos 304 Rocket 4.1 18:33:51 10° SSW 18:38:37 68° WNW 18:43:25 10° NNE
Cosmos 1603 4.3 18:35:13 10° SSE 18:40:10 33° ESE 18:42:36 23° ENE
BREEZE M DEB (TANK) 1.2 18:38:35 10° NW 18:40:54 52° NNE 18:40:58 52° NE
USA 215 3.5 18:37:35 16° ESE 18:42:42 51° NE 18:48:59 10° NW
Cosmos 1666 Rocket 3.4 18:42:20 10° S 18:46:40 81° E 18:51:04 10° N
Cosmos 2278 Rocket 3.8 18:43:46 10° NW 18:48:56 37° WSW 18:54:05 10° S
Resurs 01 Rocket 2.2 18:49:20 31° E 18:50:09 34° ENE 18:54:10 10° N
Cosmos 1455 2.0 18:48:06 10° N 18:51:54 72° E 18:55:42 10° SSE
SJ-6B 2.8 18:48:59 10° SSE 18:53:02 73° ENE 18:57:10 10° N
Cosmos 1703 4.1 18:49:25 10° SSW 18:53:12 51° W 18:57:02 10° N
Cosmos 1933 Rocket 4.2 18:54:11 10° SSE 18:57:42 36° ESE 18:57:42 36° ESE
Tiangong 1 3.0 19:01:27 10° SSW 19:02:54 19° S 19:02:54 19° S
TIMED 4.4 19:04:17 10° NNW 19:08:38 61° ENE 19:09:11 55° ESE
Cosmos 2237 Rocket 4.4 19:07:57 10° WSW 19:12:10 21° NW 19:16:23 10° N
Cosmos 2369 Rocket 3.7 19:12:49 10° N 19:15:08 20° NNE 19:15:08 20° NNE
SL-16 R/B 3.4 19:14:10 10° SW 19:19:27 40° WNW 19:24:46 10° N
Cosmos 1470 Rocket 3.4 19:15:18 10° S 19:19:23 71° SE 19:19:23 71° SE
Lacrosse 4 Rocket 2.0 19:15:40 10° NNW 19:18:28 41° N 19:18:28 41° N
ALOS 2.1 19:18:45 10° SSE 19:23:25 86° ENE 19:28:07 10° NNW
Cosmos 2242 Rocket 3.7 19:19:25 10° N 19:23:50 74° W 19:28:15 10° S
Spot 2 Rocket 3.3 19:20:26 10° SSE 19:25:28 80° ENE 19:30:31 10° N
USA 229 DEB 3.7 19:19:09 10° SW 19:25:59 81° WNW 19:29:43 30° NNE
USA 229 3.7 19:19:13 10° SW 19:26:06 81° NW 19:29:46 31° NNE
Cosmos 2026 Rocket 3.9 19:21:20 10° S 19:27:25 61° E 19:29:04 46° NE
Cosmos 292 Rocket 3.7 19:30:19 10° SSW 19:35:03 80° WNW 19:35:12 79° NW
Iridium 4 Rocket 3.7 19:31:12 10° SSW 19:35:39 54° W 19:38:17 22° NNW
Cosmos 1869 4.2 19:33:20 10° NNW 19:37:15 49° W 19:41:09 10° SSW
FENGYUN 3A 4.1 19:43:24 10° S 19:48:40 59° W 19:53:59 10° NNW
Meteor 2-20 4.3 19:43:38 10° S 19:49:32 82° SE 19:49:32 82° SE
Cosmos 1680 Rocket 3.9 19:51:20 10° SSW 19:56:20 61° WNW 19:56:20 61° WNW
Cosmos 1943 4.4 19:52:26 10° SSW 19:55:14 30° S 19:55:14 30° S
ATLAS 5 CENTAUR R/B 4.4 20:04:15 10° NNW 20:05:21 15° N 20:05:21 15° N
NOSS 3-1 (C) 4.4 20:12:24 10° SW 20:15:41 37° SW 20:15:41 37° SW
USA 215 3.9 20:24:58 45° SSW 20:25:41 47° SW 20:31:58 10° WNW
Resurs 01 Rocket 4.1 20:26:51 20° W 20:26:51 20° W 20:30:00 10° NW
